Weather in Kolmogorovo

Russia / Kemerovo Oblast     55°38′20″N   85°39′44″E
temp.,
°C
wind,
m/s
gust,
m/s
humid.,
%
clouds,
%
prec.,
mm/h
press.,
hPa
HPBL,
m
5 march, fri
fri501:00−5ssw51587100 1.6 1016729
04:00−7s51484100 0.0 1015558
07:00−8s51578100 0.0 1014571
10:00−6s61578100 0.0 1012741
13:00−3ssw71292100 0.1 1011937
16:00−3sw71388100 1.7 10101092
19:00−5wsw71686100 1.9 10141135
22:00−6sw61691100 0.1 1015993
6 march, sat
sat601:00−5sw71593100 1.0 10151288
04:00−5sw71491100 0.8 10151081
07:00−6sw71492100 1.7 1016961
10:00−6ssw71493100 0.9 1015961
13:00−5ssw71583100 1.4 10131105
16:00−4sw81681100 0.1 10121264
19:00−5sw71593100 0.9 10111120
22:00−4sw71589100 0.6 10101080
7 march, sun
sun701:00−4sw61489100 0.8 1010931
04:00−3sw61393100 0.5 1009855
07:00−4wsw51096100 1.8 1011811
10:00−7w61177100 0.6 1013888
13:00−6wsw6117752 0.6 1016943
16:00−7wsw6108043 0.0 10171062
19:00−9wsw4128769 0.1 1020632
22:00−12sw3119126 0.0 1023360
8 march, mon
mon801:00−15sw229532 0.0 102527
04:00−15sse239398 0.0 102435
07:00−16se379082 0.0 1023140
10:00−11sse5128792 0.0 1019323
13:00−5sse5129396 0.0 1015474
16:000s61385100 0.0 1010920
19:000ssw61578100 0.0 1006941
22:00−2sw61683100 0.0 10061102
9 march, tue
tue901:00−1sw71690100 0.3 10071426
04:00−10w6148977 0.3 1012695
07:00−13wsw5149388 0.3 1018551
10:00−12wsw61292100 0.1 1021624
13:00−10wsw6118699 0.1 1024706
16:00−9sw598313 0.0 1024658
19:00−12ssw259116 0.0 1025106
22:00−14s37927 0.0 1024137